Airfield :
LOGIN :

Register | Disclaimer

   EN    FR    IT 

 










Legend :    VFR   Marginal VFR   IFR   Intensive IFR   Very Intensive IFR
Visi :
Ceiling :
>= 8 km
>= 3000ft
5 to 8 km
1000 to 3000 ft
1500m to 5 km
500 to 1000 ft
800 to 1500m
200 to 500 ft
< 800m
< 200 ft
Symbols :   Thunderstorms  Fog  Heavy snow  Heavy precipitations  Wind > 20 kt
SIGMETs :     Misc.  Thunderstorms  Icing  Turbulence  Mountain Waves  Volcanic Ashes






- Airport Elevation : 1830 ft


EBLB - Butgenbach Elsenborn

CURRENT METAR :
  • 170725Z AUTO 28006KT 3400 BR OVC002/// 01/01 Q1032 AMB

EXPIRED METARs :
  • 170655Z AUTO 29006KT 0250 FG OVC002/// 01/01 Q1031 RED
  • 170625Z AUTO 28006KT 0100 FG OVC002/// 01/01 Q1031 RED
  • 170555Z AUTO 28006KT 0100 FG OVC002/// 01/01 Q1031 RED
  • 170525Z AUTO 28006KT 0100 -RA OVC002/// 01/01 Q1031 RED
  • 170455Z AUTO 27006KT 0150 FG OVC002/// 01/01 Q1030 RED

Expired Forecast.



MET'MAP, your aeronautical weather chart ! - Copyright ORBIFLY December 2007 - Disclaimer

ORBIFLY MET'MAP TEAM :

Programming & Development : Alexandra Zaïnal
Concept & original design : Baudouin d'Aumeries
Assistance for programming : Marc-Olivier Méhu
Technical & hardware support : Manuel Goepfert

Contact : metmap@orbifly.com




SOURCES & CREDITS :

   NOAA